Location: ????? ????
(37.9717°N, 23.4051°E)
Time: 03:35:59
(UTC+00:00)

SPOT 5 - Pass Details

Date: 18 April 2024
Orbit: 620 x 810 km, 98.1° (Epoch: 20 May)

Event Time Altitude Azimuth Distance (km) Brightness Sun altitude
Exits shadow 18:46:43 34° 106° (ESE) 1,299 3.6 -19.1°
Maximum altitude 18:48:06 41° 71° (ENE) 1,159 3.6 -19.3°
Drops below altitude 10° 18:53:00 10° 3° (N) 2,374 5.9 -20.1°
Sets 18:55:25 0° 356° (N) 3,289 6.8 -20.5°
